Regional Weather Roundup
Issued by NWS

Home | Current Version | Previous Version | Text Only | Print | Product List | Glossary Off
Versions: 1 2 3 4 5 6 7 8 9 10 11 12 13 14 15 16 17 18 19 20 21 22 23 24 25 26 27 28 29 30 31 32 33 34 35 36 37 38 39 40 41 42 43 44 45 46 47 48 49 50

000
ASUS43 KFSD 161402
RWRSD

WEATHER ROUNDUP FOR SOUTH DAKOTA
NATIONAL WEATHER SERVICE SIOUX FALLS SD
900 AM CDT WED AUG 16 2017

NOTE: "FAIR" INDICATES FEW OR NO CLOUDS BELOW 12,000 FEET WITH NO
SIGNIFICANT WEATHER AND/OR OBSTRUCTIONS TO VISIBILITY.


SDZ001>005-009-010-012>017-161500-
NORTHWEST AND NORTH CENTRAL SOUTH DAKOTA

CITY           SKY/WX    TMP DP  RH WIND       PRES   REMARKS
BUFFALO          N/A     58  56  93 W5        29.94R
FAITH            N/A     61  61 100 NW12      29.95R
MOBRIDGE       CLOUDY    65  60  84 N15       29.88R
$$

SDZ012>016-024>037-041>051-057-063-072>074-161500-
SOUTHWEST AND SOUTH CENTRAL SOUTH DAKOTA

CITY           SKY/WX    TMP DP  RH WIND       PRES   REMARKS
RAPID CTY ARPT CLOUDY    61  54  77 N14       29.99R
PIERRE         LGT RAIN  63  61  93 N13       29.87R
CUSTER         CLOUDY    56  44  64 N6        30.08R
ELLSWORTH AFB  CLOUDY    62  55  78 N13       29.98R
PHILIP         CLOUDY    64  61  90 N13       29.94R
PINE RIDGE     CLOUDY    61  60  97 N12       29.98R
SPEARFISH      FAIR      59  52  77 W5        30.05R
WINNER         CLOUDY    68  66  93 NW9       29.85S
$$

SDZ004>011-016>023-039-040-161500-
NORTHEAST SOUTH DAKOTA

CITY           SKY/WX    TMP DP  RH WIND       PRES   REMARKS
ABERDEEN       LGT RAIN  66  66 100 SW5       29.83R FOG
WATERTOWN      LGT RAIN  66  66 100 CALM      29.83F
BROOKINGS      LGT RAIN  66  64  93 S7        29.86R
SISSETON         N/A     66  66 100 SE8       29.82F
$$

SDZ017-020-022-023-036>040-048>070-161500-
SOUTHEAST SOUTH DAKOTA

CITY           SKY/WX    TMP DP  RH WIND       PRES   REMARKS
SIOUX FALLS    LGT RAIN  67  66  97 E7        29.84S FOG
HURON          LGT RAIN  66  66 100 CALM      29.84R FOG
CHAMBERLAIN    CLOUDY    67  67 100 N3        29.84F
MITCHELL       LGT RAIN  66  66 100 E5        29.85R FOG
YANKTON        RAIN      66  65  96 N5        29.82S FOG
$$

ABBREVIATIONS USED IN REMARKS
   TC - TEMPERATURE IN CELSIUS
  WCI - WIND CHILL INDEX
   HX - HEAT INDEX
  VSB - VISIBILITY




USA.gov is the U.S. government's official web portal to all federal, state and local government web resources and services.